Current weather by "City, St" or "zip code"  
 

Current Conditions: Lehighton Jake Arner Memorial Airport, PA

Fair


82.0 F

Last Updated on Jul 3 2022, 5:35 pm EDT
Humidity: 35%
Wind Speed: N 3.5 mph
Barometer 30.04 in
Dewpoint: 51.8 F
Visibility: 10.00 mi
Precip: --
Heat Index: 81 F
Wind Chill: NA
Current conditions at:

Lehighton Jake Arner Memorial Airport, PA (K22N)

Lat: 40.8095 Lon: 75.7615

Local Radar Image active severe weather and emergency alerts image image weather storm and storm spotter reports image weather observation monitoring service image
Local
Radar
Active
Alerts
Storm Reports Obs
Monitoring

Sign-up For Email & Text Message Weather Alert Notification Services



Advertise Here

Observation History for Lehighton Jake Arner Memorial Airport, PA


Time Wind
(mph)
Vis
(mi)
Weather Precip (in) Temperature (F) Relative
Humidity
Wind
Chill
(F)
Heat
Index
(F)
Pressure
Air Dwpt altimeter
(in)
sea level
(mb)
Rmks
5:35 pm EDT N 3.5 10.00 Fair -- 82.0 51.8 35% NA 81 30.04 M
5:15 pm EDT NW 4.6 10.00 Fair -- 82.0 51.8 35% NA 81 30.04 M
4:55 pm EDT N 3.5 10.00 Fair -- 82.0 50.0 32% NA 81 30.05 M
4:35 pm EDT N 3.5 10.00 Fair -- 82.0 50.0 32% NA 81 30.04 M
4:15 pm EDT N 0.0 10.00 Fair -- 84.0 50.0 31% NA 82 30.05 M
3:55 pm EDT N 6.9 10.00 Fair -- 82.0 46.4 28% NA 80 30.05 M
2:55 pm EDT N 0.0 10.00 Fair -- 82.0 51.8 35% NA 81 30.04 M
2:35 pm EDT N 4.6 10.00 Fair -- 82.0 51.8 35% NA 81 30.05 M
2:15 pm EDT W 4.6 10.00 Fair -- 82.0 51.8 35% NA 81 30.05 M
1:55 pm EDT NW 5.8 10.00 Fair -- 81.0 51.8 37% NA 80 30.06 M
1:35 pm EDT N 0.0 10.00 Fair -- 81.0 50.0 34% NA 80 30.07 M
1:15 pm EDT N 0.0 10.00 Fair -- 81.0 46.4 30% NA 80 30.07 M
12:55 pm EDT NW 6.9 10.00 Fair -- 81.0 48.2 32% NA 80 30.08 M
12:35 pm EDT N 5.8 10.00 Fair -- 81.0 50.0 34% NA 80 30.08 M
12:15 pm EDT N 4.6 10.00 Fair -- 81.0 51.8 37% NA 80 30.07 M
11:55 am EDT N 8.1 10.00 Fair -- 79.0 50.0 37% NA NA 30.08 M
11:35 am EDT N 5.8 10.00 Fair -- 79.0 48.2 34% NA NA 30.08 M
11:15 am EDT NW 3.5 10.00 Fair -- 77.0 51.8 42% NA NA 30.08 M
10:55 am EDT N 0.0 10.00 Fair -- 77.0 51.8 42% NA NA 30.08 M
10:35 am EDT N 3.5 10.00 Fair -- 75.0 51.8 44% NA NA 30.08 M
10:15 am EDT NW 5.8 10.00 Fair -- 75.0 51.8 44% NA NA 30.08 M
9:55 am EDT N 4.6 10.00 Fair -- 75.0 53.6 47% NA NA 30.08 M
9:35 am EDT N 0.0 10.00 Fair -- 73.0 53.6 50% NA NA 30.08 M
9:15 am EDT N 0.0 10.00 Fair -- 73.0 55.4 53% NA NA 30.08 M

Regional Weather Observation


Lehighton Jake Arner Memorial Airport, PA (K22N)

Fair
82.0 F

Wilkes-Barre - Scranton, Wilkes-Barre / Scranton International Airport, PA (KAVP)

Fair
82.0 F

Mount Pocono, Pocono Mountains Municipal Airport, PA (KMPO)

Partly Cloudy
75.0 F

Allentown, Lehigh Valley International Airport, PA (KABE)

Fair
85.0 F

Allentown Queen City Municipal Airport, PA (KXLL)

Fair
86.0 F

Reading, Reading Regional Airport, PA (KRDG)

Fair
86.0 F

Advertise Here


Advertise Here